Location: Koslow
(50.3020°N, 18.5663°E)
Time: 07:52:43
(UTC+00:00)

STARLINK-1357 - Pass Details

Date: 10 October 2020
Orbit: 548 x 551 km, 53.0° (Epoch: 31 October)

Event Time Altitude Azimuth Distance (km) Brightness Sun altitude
Exits shadow 01:57:04 29° 91° (E) 1,017 5.4 -29.3°
Drops below altitude 10° 01:59:14 10° 98° (E) 1,827 6.9 -29.0°
Sets 02:01:28 0° 101° (E) 2,720 7.9 -28.7°
